Location: Utrecht
(52.0917°N, 5.1178°E)
Time: 01:07:01
(UTC+02:00)

X-37B - Pass Details

Date: 24 June 2021
Orbit: 383 x 392 km, 45.0° (Epoch: 01 July)

Event Time Altitude Azimuth Distance (km) Brightness Sun altitude
Rises 23:08:05 0° 225° (SW) 2,251 4.3 -7.4°
Reaches altitude 10° 23:10:40 10° 202° (SSW) 1,399 3.1 -7.6°
Maximum altitude 23:12:41 16° 162° (SSE) 1,108 2.3 -7.8°
Drops below altitude 10° 23:14:41 10° 123° (ESE) 1,402 2.8 -7.9°
Enters shadow 23:15:02 - 118° (ESE) 1,502 3.0 -8.0°
